Preview of NWS' New Version of Forecast
This preview is not operational and should not be used for support decisions.

Regional Weather Roundup (RWR)

Issued by National Weather Service (NWS)

                            
000
ASCA42 TJSJ 180710
RWRPR 
PUERTO RICO/U.S. VIRGIN ISLANDS HOURLY WEATHER ROUNDUP
NATIONAL WEATHER SERVICE SAN JUAN PR
300 AM AST THU APR 18 2019

PRZ001>002-007>008-010-180800-
PUERTO RICO
  
CITY           SKY/WX    TMP DP  RH WIND       PRES   REMARKS
SAN JUAN LMM   PTCLDY    75  70  83 SE3       29.96F                  
CEIBA          PTCLDY    79  70  73 MISG      29.97F                  
$$

VIZ001>002-180800-
U.S. VIRGIN ISLANDS
  
CITY           SKY/WX    TMP DP  RH WIND       PRES   REMARKS
CHARLOTTE AMA  CLEAR     75  66  73 E10       29.95F                  
CHRISTIANSTED  CLEAR     75  66  73 NE9       29.95F                  
$$

HOURLY WEATHER ROUNDUP FOR THE NEWS MEDIA
  
CITY           SKY/WX    TMP DP  RH WIND       PRES   REMARKS
ORLANDO        FAIR      66  61  84 SE3       30.03F                  
NEW YORK       CLOUDY    49  41  74 SE8       30.21F                  
NEWARK         MOCLDY    51  39  63 SE7       30.18F                  
CHICAGO        FAIR      64  58  80 SW15G25   29.54S                  
HARTFORD       FAIR      36  36 100 CALM      30.25F                  
BOSTON         FAIR      43  34  70 S7        30.25F                  
DALLAS         TSTM      62  59  90 NW8       29.71F FOG              
PHILADELPHIA   CLOUDY    53  43  68 E9        30.14F                  
LOS ANGELES    MOCLDY    59  50  72 SW3       30.11R                  
WASHINGTON DC  CLOUDY    54  48  80 E5        30.06F